Total_Precipitation_Accumulation
0.02 0.04 0.10 0.15 0.12 0.10 0.08 0.07 0.06 0.05 0.07 0.09 0.09 0.09 0.10 0.11 0.12 0.12 0.13 0.13 0.13 0.14 0.15 0.18 0.20 0.19 0.19 0.18 0.16 0.17 0.18 0.18 0.16 0.14 0.13 0.12 0.11 0.11 0.12 0.14 0.15 0.15 0.23
0.04 0.05 0.07 0.09 0.08 0.07 0.06 0.05 0.04 0.04 0.05 0.07 0.06 0.05 0.06 0.08 0.09 0.12 0.13 0.15 0.16 0.16 0.14 0.15 0.17 0.18 0.17 0.17 0.17 0.16 0.16 0.15 0.14 0.12 0.10 0.08 0.10 0.12 0.13 0.15 0.13 0.16 0.19
0.03 0.04 0.04 0.05 0.05 0.05 0.05 0.04 0.03 0.03 0.03 0.03 0.03 0.03 0.04 0.05 0.06 0.09 0.11 0.15 0.18 0.20 0.18 0.16 0.19 0.21 0.19 0.18 0.19 0.17 0.17 0.13 0.10 0.10 0.09 0.10 0.14 0.16 0.16 0.16 0.13 0.17 0.18
0.01 0.02 0.02 0.04 0.05 0.04 0.04 0.04 0.03 0.03 0.02 0.02 0.02 0.02 0.03 0.03 0.05 0.06 0.08 0.13 0.19 0.25 0.28 0.28 0.28 0.27 0.23 0.21 0.21 0.18 0.23 0.16 0.09 0.07 0.04 0.08 0.20 0.26 0.23 0.21 0.16 0.18 0.20
0.00 0.01 0.02 0.04 0.04 0.04 0.05 0.04 0.03 0.03 0.03 0.04 0.03 0.03 0.03 0.04 0.04 0.04 0.05 0.07 0.15 0.24 0.30 0.33 0.31 0.28 0.27 0.25 0.21 0.21 0.29 0.23 0.11 0.04 0.03 0.07 0.17 0.30 0.27 0.26 0.22 0.20 0.21
0.01 0.01 0.02 0.03 0.04 0.04 0.04 0.04 0.04 0.03 0.04 0.05 0.05 0.05 0.07 0.07 0.06 0.05 0.05 0.04 0.08 0.14 0.22 0.27 0.27 0.29 0.31 0.25 0.21 0.26 0.37 0.33 0.13 0.03 0.05 0.09 0.13 0.31 0.35 0.31 0.27 0.23 0.21
0.00 0.01 0.01 0.03 0.04 0.04 0.04 0.05 0.05 0.05 0.05 0.05 0.06 0.07 0.08 0.09 0.08 0.08 0.08 0.06 0.05 0.06 0.12 0.18 0.22 0.27 0.31 0.28 0.26 0.35 0.45 0.34 0.10 0.06 0.07 0.10 0.14 0.40 0.57 0.48 0.32 0.26 0.24
0.00 0.00 0.01 0.02 0.02 0.03 0.04 0.06 0.07 0.07 0.07 0.07 0.07 0.07 0.07 0.08 0.10 0.11 0.12 0.10 0.07 0.06 0.06 0.09 0.15 0.21 0.26 0.28 0.30 0.35 0.40 0.23 0.07 0.06 0.08 0.08 0.17 0.50 0.67 0.64 0.48 0.34 0.28
0.00 0.00 0.00 0.00 0.01 0.01 0.03 0.05 0.07 0.07 0.06 0.06 0.06 0.06 0.05 0.06 0.09 0.14 0.15 0.12 0.11 0.10 0.09 0.07 0.07 0.11 0.15 0.20 0.25 0.28 0.26 0.16 0.07 0.12 0.10 0.12 0.20 0.55 0.71 0.73 0.64 0.47 0.35
0.00 0.00 0.00 0.00 0.00 0.00 0.01 0.04 0.06 0.06 0.06 0.06 0.06 0.06 0.05 0.06 0.08 0.11 0.12 0.10 0.10 0.12 0.12 0.10 0.08 0.07 0.07 0.09 0.13 0.15 0.12 0.08 0.05 0.12 0.21 0.19 0.18 0.48 0.71 0.74 0.68 0.59 0.47
0.00 0.00 0.00 0.00 0.00 0.00 0.01 0.03 0.05 0.06 0.06 0.06 0.06 0.07 0.06 0.05 0.04 0.05 0.05 0.06 0.09 0.11 0.10 0.10 0.11 0.09 0.07 0.04 0.04 0.05 0.04 0.02 0.06 0.16 0.22 0.22 0.30 0.60 0.81 0.79 0.75 0.67 0.59
0.00 0.00 0.00 0.00 0.00 0.00 0.00 0.02 0.04 0.04 0.04 0.04 0.05 0.06 0.07 0.06 0.05 0.05 0.04 0.05 0.09 0.10 0.09 0.10 0.12 0.10 0.08 0.06 0.08 0.08 0.03 0.01 0.02 0.06 0.11 0.14 0.33 0.70 0.91 0.91 0.91 0.83 0.72
0.00 0.00 0.00 0.00 0.00 0.00 0.00 0.01 0.03 0.04 0.05 0.06 0.08 0.09 0.09 0.11 0.11 0.10 0.10 0.12 0.12 0.12 0.13 0.14 0.17 0.17 0.19 0.21 0.23 0.20 0.13 0.09 0.05 0.03 0.03 0.06 0.18 0.46 0.77 0.92 0.97 0.97 0.92
0.00 0.00 0.00 0.00 0.00 0.00 0.00 0.00 0.01 0.01 0.03 0.06 0.07 0.11 0.14 0.18 0.20 0.22 0.22 0.26 0.26 0.25 0.24 0.23 0.20 0.20 0.21 0.22 0.24 0.24 0.23 0.22 0.14 0.09 0.05 0.05 0.07 0.14 0.34 0.61 0.85 0.97 1.04
0.00 0.00 0.00 0.00 0.00 0.00 0.00 0.00 0.00 0.01 0.03 0.05 0.05 0.08 0.10 0.10 0.11 0.11 0.11 0.12 0.12 0.13 0.14 0.16 0.17 0.16 0.16 0.16 0.17 0.18 0.21 0.23 0.21 0.17 0.14 0.12 0.08 0.08 0.14 0.29 0.54 0.79 0.99
0.00 0.00 0.00 0.00 0.00 0.00 0.00 0.00 0.00 0.00 0.01 0.01 0.02 0.02 0.03 0.03 0.03 0.03 0.03 0.02 0.02 0.02 0.02 0.03 0.04 0.05 0.06 0.08 0.09 0.11 0.13 0.16 0.18 0.19 0.19 0.21 0.16 0.13 0.14 0.20 0.33 0.56 0.86
0.00 0.00 0.00 0.00 0.00 0.00 0.00 0.00 0.00 0.00 0.00 0.00 0.00 0.00 0.00 0.01 0.01 0.01 0.01 0.01 0.00 0.00 0.00 0.00 0.00 0.01 0.01 0.02 0.03 0.05 0.07 0.08 0.12 0.15 0.18 0.22 0.23 0.20 0.17 0.20 0.27 0.42 0.71
0.00 0.00 0.00 0.00 0.00 0.00 0.00 0.00 0.00 0.00 0.00 0.00 0.00 0.00 0.00 0.00 0.00 0.00 0.00 0.00 0.00 0.00 0.01 0.01 0.01 0.00 0.01 0.01 0.02 0.03 0.05 0.06 0.06 0.09 0.14 0.16 0.19 0.21 0.20 0.20 0.28 0.42 0.59
0.00 0.00 0.00 0.00 0.00 0.00 0.00 0.00 0.00 0.00 0.00 0.00 0.00 0.00 0.00 0.00 0.00 0.00 0.00 0.00 0.00 0.01 0.01 0.02 0.02 0.01 0.01 0.01 0.02 0.02 0.02 0.04 0.05 0.08 0.11 0.14 0.17 0.18 0.20 0.21 0.25 0.34 0.47
0.00 0.00 0.00 0.00 0.00 0.00 0.00 0.00 0.00 0.00 0.00 0.00 0.00 0.00 0.00 0.00 0.00 0.00 0.00 0.00 0.00 0.00 0.00 0.01 0.01 0.01 0.02 0.01 0.02 0.01 0.00 0.01 0.02 0.05 0.07 0.12 0.16 0.17 0.19 0.24 0.27 0.25 0.27
0.00 0.00 0.00 0.00 0.00 0.00 0.00 0.00 0.00 0.00 0.00 0.00 0.00 0.00 0.00 0.00 0.00 0.00 0.00 0.00 0.00 0.01 0.01 0.01 0.02 0.02 0.02 0.02 0.02 0.01 0.00 0.00 0.01 0.02 0.07 0.12 0.17 0.23 0.29 0.34 0.40 0.38 0.30
0.00 0.00 0.00 0.00 0.00 0.00 0.00 0.00 0.00 0.00 0.00 0.00 0.00 0.00 0.00 0.00 0.00 0.00 0.00 0.00 0.00 0.00 0.00 0.01 0.02 0.04 0.04 0.03 0.06 0.11 0.05 0.01 0.00 0.01 0.04 0.09 0.17 0.27 0.39 0.44 0.49 0.50 0.46
0.00 0.00 0.00 0.00 0.00 0.00 0.00 0.00 0.00 0.00 0.00 0.00 0.00 0.00 0.00 0.00 0.00 0.00 0.00 0.00 0.00 0.01 0.01 0.01 0.02 0.04 0.06 0.04 0.07 0.24 0.31 0.16 0.05 0.00 0.01 0.04 0.08 0.12 0.20 0.29 0.36 0.41 0.47
0.00 0.00 0.00 0.00 0.00 0.00 0.00 0.00 0.00 0.00 0.00 0.00 0.00 0.00 0.00 0.00 0.00 0.00 0.00 0.00 0.00 0.01 0.01 0.02 0.03 0.05 0.10 0.12 0.08 0.12 0.22 0.27 0.29 0.13 0.01 0.02 0.02 0.04 0.06 0.10 0.16 0.23 0.34
0.00 0.00 0.00 0.00 0.00 0.00 0.00 0.00 0.00 0.00 0.00 0.00 0.00 0.00 0.00 0.00 0.00 0.00 0.00 0.00 0.00 0.01 0.02 0.03 0.04 0.06 0.12 0.17 0.17 0.15 0.14 0.13 0.19 0.28 0.12 0.02 0.03 0.03 0.03 0.05 0.07 0.10 0.16
0.00 0.00 0.00 0.00 0.00 0.00 0.00 0.00 0.00 0.00 0.00 0.00 0.00 0.00 0.00 0.00 0.00 0.00 0.00 0.00 0.01 0.01 0.03 0.04 0.06 0.09 0.11 0.15 0.18 0.20 0.24 0.26 0.20 0.26 0.22 0.07 0.03 0.03 0.04 0.05 0.06 0.07 0.10